Change the Weather History Date:

Friday, July 12, 2013

  Actual Average Record
Temperature  
Mean Temperature 65 °F -  
Max Temperature 79 °F 83 °F 95 °F (1987)
Min Temperature 53 °F 60 °F 48 °F (1975)
Growing Degree Days 15 (Base 50)    
Moisture  
Dew Point 58 °F    
Average Humidity 82    
Maximum Humidity 100    
Minimum Humidity 56    
Precipitation  
Precipitation 0.00 in - - ()
Sea Level Pressure  
Sea Level Pressure 30.13 in    
Wind  
Wind Speed 2 mph (NNE)    
Max Wind Speed 9 mph    
Max Gust Speed -    
Visibility 7 miles    
Events Fog    
Averages and records for this station are not official NWS values.
T = Trace of Precipitation, MM = Missing Value Source: NWS Daily Summary

Daily Weather History Graph

Daily Weather History Graph

Search for Another Location

Airport or City:

Trip Planner

Search our weather history database for the weather conditions in past years. The results will help you decide how hot, cold, wet, or windy it might be!

Date:

Astronomy

Jul. 12, 2013 Rise Set
Actual Time 6:20 AM EDT 9:21 PM EDT
Civil Twilight 5:47 AM EDT 9:55 PM EDT
Nautical Twilight 5:04 AM EDT 10:37 PM EDT
Astronomical Twilight 4:13 AM EDT 11:28 PM EDT
Moon 10:42 AM EDT (7/12) 11:25 PM EDT (7/12)
Length of Visible Light 16h 07m
Length of Day
15h 00m
Waxing Crescent, 17% of the Moon is Illuminated
Jul 12
Waxing Crescent
Jul 15
First Quarter
Jul 22
Full
Jul 29
Last Quarter
Aug 6
New

Hourly Weather History & Observations

Time (EDT) Temp. Dew Point Humidity Pressure Visibility Wind Dir Wind Speed Gust Speed Precip Events Conditions
12:53 AM 57.0 °F 55.0 °F 93% 30.08 in 10.0 mi Calm Calm - N/A   Clear
1:53 AM 55.0 °F 54.0 °F 96% 30.09 in 10.0 mi Calm Calm - N/A   Clear
2:53 AM 54.0 °F 53.1 °F 97% 30.09 in 10.0 mi Calm Calm - N/A   Clear
3:53 AM 54.0 °F 54.0 °F 100% 30.09 in 8.0 mi Calm Calm - N/A   Clear
4:53 AM 53.1 °F 53.1 °F 100% 30.12 in 8.0 mi Calm Calm - N/A   Clear
5:53 AM 53.1 °F 52.0 °F 96% 30.12 in 9.0 mi Calm Calm - N/A   Clear
6:35 AM 53.6 °F 51.8 °F 94% 30.13 in 7.0 mi Calm Calm - N/A   Scattered Clouds
6:44 AM 53.6 °F 53.6 °F 100% 30.14 in 3.0 mi East 3.5 mph - N/A   Mostly Cloudy
6:53 AM 55.0 °F 54.0 °F 96% 30.14 in 2.0 mi Calm Calm - N/A   Overcast
6:56 AM 55.4 °F 53.6 °F 94% 30.14 in 1.2 mi Calm Calm - N/A   Overcast
7:07 AM 55.4 °F 55.4 °F 100% 30.14 in 0.5 mi Calm Calm - N/A Fog Fog
7:14 AM 55.4 °F 55.4 °F 100% 30.14 in 0.5 mi ESE 3.5 mph - N/A Fog Fog
7:21 AM 57.2 °F 55.4 °F 94% 30.14 in 1.0 mi Calm Calm - N/A   Mist
7:27 AM 57.2 °F 55.4 °F 94% 30.13 in 1.5 mi East 3.5 mph - N/A   Clear
7:36 AM 59.0 °F 57.2 °F 94% 30.14 in 3.0 mi Calm Calm - N/A   Clear
7:53 AM 62.1 °F 59.0 °F 90% 30.14 in 8.0 mi Calm Calm - N/A   Clear
8:53 AM 68.0 °F 61.0 °F 78% 30.15 in 10.0 mi ESE 4.6 mph - N/A   Clear
9:53 AM 73.0 °F 61.0 °F 66% 30.14 in 10.0 mi SSE 4.6 mph - N/A   Clear
10:53 AM 75.9 °F 60.1 °F 58% 30.14 in 10.0 mi Calm Calm - N/A   Clear
11:53 AM 75.0 °F 61.0 °F 62% 30.15 in 10.0 mi NW 9.2 mph - N/A   Partly Cloudy
12:53 PM 75.9 °F 60.1 °F 58% 30.14 in 10.0 mi Variable 5.8 mph - N/A   Clear
1:53 PM 75.0 °F 60.1 °F 60% 30.14 in 10.0 mi NW 8.1 mph - N/A   Clear
2:53 PM 77.0 °F 60.1 °F 56% 30.13 in 10.0 mi WNW 5.8 mph - N/A   Clear
3:53 PM 77.0 °F 61.0 °F 58% 30.13 in 10.0 mi Variable 4.6 mph - N/A   Clear
4:53 PM 77.0 °F 61.0 °F 58% 30.12 in 10.0 mi Variable 6.9 mph - N/A   Clear
5:53 PM 75.9 °F 61.0 °F 60% 30.12 in 10.0 mi NW 6.9 mph - N/A   Clear
6:53 PM 75.9 °F 61.0 °F 60% 30.11 in 10.0 mi Variable 4.6 mph - N/A   Clear
7:53 PM 75.0 °F 61.0 °F 62% 30.11 in 10.0 mi NNW 4.6 mph - N/A   Clear
8:53 PM 72.0 °F 64.0 °F 76% 30.10 in 10.0 mi Calm Calm - N/A   Clear
9:53 PM 64.9 °F 62.1 °F 90% 30.12 in 10.0 mi Calm Calm - N/A   Clear
10:53 PM 64.0 °F 62.1 °F 93% 30.13 in 6.0 mi Calm Calm - N/A   Clear
11:53 PM 62.1 °F 60.1 °F 93% 30.12 in 5.0 mi Calm Calm - N/A   Clear